#timestamp,LO_Frequency,Hit 
1498006815.6,286047006.3,N
1498006835.4,286047007.6,N
1498006855.3,286047007.3,N
1498006875.1,286047006.6,N
1498006895.8,286047008.0,N
1498006915.7,286047010.3,N
1498006935.5,286047010.7,N
1498006955.3,286047011.9,N
1498006975.2,286047012.1,N
1498006995.9,286047011.3,N
1498007015.7,286047010.9,N
1498007035.6,286047011.0,N
1498007055.4,286047012.8,N
1498007075.2,286047012.8,N
1498007095.0,286047013.6,N
1498007096.0,286047013.6,N
1498007115.8,286047011.0,N
1498007135.6,286047012.8,N
1498007155.4,286047011.6,N
1498007175.3,286047013.9,N
1498007195.1,286047013.1,N
1498007215.8,286047012.5,N
1498007235.7,286047014.9,N
1498007255.5,286047014.5,N
1498007275.3,286047016.7,N
1498007295.2,286047016.1,N
1498007315.9,286047014.5,N
1498007335.7,286047015.9,N
1498007355.5,286047017.9,N
1498007375.4,286047018.0,N
1498007395.2,286047020.3,N
1498007415.0,286047020.2,N
1498007415.9,286047020.2,N
1498007435.8,286047019.0,N
1498007455.6,286047019.1,N
1498007475.4,286047020.8,N
1498007495.3,286047021.8,N
1498007515.1,286047021.7,N
1498007516.0,286047021.7,N
1498007535.8,286047019.5,N
1498007555.7,286047021.5,N
1498007575.5,286047020.7,N
1498007595.3,286047023.1,N
1498007615.2,286047020.8,N
1498007635.9,286047020.8,N
1498007655.1,286047023.5,N
1498007656.0,286047023.5,N
1498007675.8,286047023.5,N
1498007695.6,286047020.9,N
1498007715.5,286047018.9,N
1498007735.3,286047021.9,N
1498007755.1,286047021.5,N
1498007775.9,286047023.4,N
1498007795.7,286047022.2,N
1498007815.5,286047024.3,N
1498007835.4,286047024.3,N
1498007855.2,286047024.0,N
1498007875.0,286047024.3,N
1498007875.9,286047024.3,N
1498007895.8,286047024.0,N
1498007915.6,286047025.2,N
1498007935.4,286047024.6,N
1498007955.2,286047023.8,N
1498007975.1,286047024.3,N
1498007976.0,286047024.3,N
1498007995.8,286047024.4,N
1498008015.6,286047026.6,N
1498008035.5,286047026.5,N
1498008055.3,286047026.8,N
1498008075.1,286047026.5,N
1498008095.9,286047026.6,N
1498008115.7,286047026.6,N
1498008135.5,286047024.0,N
1498008155.4,286047023.0,N
1498008175.2,286047024.5,N
1498008195.0,286047024.4,N
1498008195.9,286047024.4,N
1498008215.7,286047026.8,N
1498008235.6,286047025.7,N
1498008255.4,286047026.1,N
1498008275.2,286047024.1,N
1498008295.1,286047026.8,N
1498008296.0,286047026.8,N
1498008315.8,286047026.4,N
1498008335.6,286047026.3,N
1498008355.5,286047023.9,N
1498008375.3,286047023.7,N
1498008395.1,286047023.8,N
1498008415.9,286047025.7,N
1498008435.7,286047025.5,N
1498008455.5,286047026.5,N
1498008475.3,286047025.6,N
1498008495.2,286047025.4,N
1498008515.0,286047025.8,N
1498008515.9,286047025.8,N
1498008535.7,286047026.2,N
1498008555.6,286047025.3,N
1498008575.4,286047028.2,N
1498008595.2,286047025.3,N
1498008615.1,286047027.4,N
1498008616.0,286047027.4,N
1498008635.8,286047027.7,N
1498008655.6,286047027.6,N
1498008675.5,286047027.2,N
1498008695.3,286047026.9,N
1498008715.1,286047029.7,N
1498008735.8,286047028.7,N
1498008755.7,286047029.6,N
1498008775.5,286047028.8,N
1498008795.3,286047031.3,N
1498008815.2,286047031.1,N
1498008835.9,286047031.2,N
1498008855.7,286047028.8,N
1498008875.6,286047029.5,N
1498008895.4,286047028.1,N
1498008915.2,286047029.1,N
1498008935.1,286047028.8,N
1498008936.0,286047028.8,N
1498008955.8,286047026.9,N
1498008975.6,286047029.8,N
1498008995.4,286047029.0,N
1498009015.3,286047031.5,N
1498009035.1,286047029.4,N
1498009055.8,286047029.7,N
1498009075.7,286047028.7,N
1498009095.7,286047031.2,N
1498009115.5,286047031.1,N
1498009135.4,286047030.9,N
1498009155.2,286047030.7,N
1498009175.0,286047030.4,N
1498009175.9,286047030.4,N
1498009195.8,286047031.3,N
1498009215.6,286047033.0,N
1498009235.4,286047031.7,N
1498009255.3,286047031.9,N
1498009275.1,286047034.4,Y
1498009276.0,286047034.4,Y
1498009295.8,286047006.2,N
1498009315.7,286047008.9,N
1498009335.5,286047008.8,N
1498009355.3,286047006.1,N
1498009375.2,286047007.9,N
1498009395.9,286047010.8,N
1498009415.7,286047010.8,N
1498009435.6,286047009.4,N
1498009455.4,286047009.7,N
1498009475.2,286047010.1,N
1498009495.0,286047010.0,N
1498009495.9,286047010.0,N
1498009515.8,286047010.1,N
1498009535.6,286047012.0,N
1498009555.4,286047011.0,N
1498009575.3,286047012.4,N
1498009595.1,286047009.5,N
1498009615.8,286047011.9,N
1498009635.7,286047009.7,N
1498009655.5,286047009.6,N
1498009675.3,286047012.3,N
1498009695.2,286047011.3,N
1498009715.9,286047013.7,N
1498009735.7,286047012.8,N
1498009755.5,286047011.1,N
1498009775.4,286047011.5,N
1498009795.2,286047013.6,N
1498009815.0,286047014.0,N
1498009815.9,286047014.0,N
1498009835.8,286047015.2,N
1498009855.6,286047010.9,N
1498009875.4,286047009.3,N
1498009895.3,286047012.1,N
1498009915.1,286047013.9,N
1498009916.0,286047013.9,N
1498009935.8,286047012.8,N
1498009955.7,286047014.3,N
1498009975.5,286047014.5,N
1498009995.3,286047016.5,N
1498010015.1,286047014.8,N
1498010035.9,286047015.6,N
1498010055.7,286047015.4,N
1498010075.5,286047017.2,N
1498010095.4,286047016.7,N
1498010115.2,286047015.6,N
1498010135.0,286047015.1,N
1498010135.9,286047015.1,N
1498010155.8,286047011.0,N
1498010175.6,286047012.5,N
1498010195.4,286047013.2,N
1498010215.0,286047015.3,N
1498010215.9,286047015.3,N
1498010235.8,286047015.4,N
1498010255.6,286047014.5,N
1498010275.4,286047017.2,N
1498010295.2,286047014.2,N
1498010315.1,286047018.7,N
1498010316.0,286047018.7,N
1498010335.8,286047018.8,N
1498010355.6,286047018.2,N
1498010375.5,286047019.9,N
1498010395.3,286047021.3,N
